Tracking 31027 objects as of 19-Jul-2025
HD Live streaming from Space Station
objects crossing your sky now

SL-8 DEB

Track SL-8 DEB now!
10-day predictions


NORAD ID: 6065
Int'l Code: 1972-043D
Perigee: 581.1 km
Apogee: 597.6 km
Inclination: 74.1 °
Period: 96.3 minutes
Semi major axis: 6960 km
RCS: 0.0066 m2 (small)
Launch date: June 23, 1972
Source: Commonwealth of Independent States (former USSR) (CIS)
Launch site: PLESETSK MISSILE AND SPACE COMPLEX (PKMTR)

Note: This is SATELLITE DEBRIS
Your satellite tracking list
STARLINK-2062
Track 1 satellite(s)




NASA's NSSDC Master Catalog

Two Line Element Set (TLE):
1 06065U 72043D   25199.22997719  .00006279  00000-0  57579-3 0  9995
2 06065  74.0606 145.1746 0011843 281.9748  78.0109 14.95041263807810
Source of the keplerian elements: AFSPC